Regional Weather Roundup
Issued by NWS

Home | Current Version | Previous Version | Text Only | Print | Product List | Glossary Off
Versions: 1 2 3 4 5 6 7 8 9 10 11 12 13 14 15 16 17 18 19 20 21 22 23 24 25 26 27 28 29 30 31 32 33 34 35 36 37 38 39 40 41 42 43 44 45 46 47 48 49 50

000
ASUS45 KBOU 041707
RWRCO

WEATHER ROUNDUP FOR COLORADO
NATIONAL WEATHER SERVICE DENVER/BOULDER CO
1100 AM MDT TUE AUG 04 2015

NOTE: "FAIR" INDICATES FEW OR NO CLOUDS BELOW 12000 FEET WITH NO
SIGNIFICANT WEATHER AND/OR OBSTRUCTIONS TO VISIBILITY.

COZ001>005-013-030-031-041800-
...NORTHWEST COLORADO...

CITY           SKY/WX    TMP DP  RH WIND       PRES   REMARKS
CRAIG          NOT AVBL
HAYDEN         MOSUNNY   66  46  48 W8        30.26R
MEEKER         SUNNY     73  46  38 VRB5      30.25S
MOUNT WERNER   NOT AVBL
STEAMBOAT SPGS   N/A     63  51  65 N3        30.28S
WALDEN         CLOUDY    59  41  51 SW18G25   30.30R
$$

COZ006>008-011-041800-
...WEST CENTRAL VALLEYS...

CITY           SKY/WX    TMP DP  RH WIND       PRES   REMARKS
GRAND JUNCTION SUNNY     77  49  37 E3        30.17S
MONTROSE       SUNNY     75  47  36 NW3       30.24S
EAGLE          MOSUNNY   75  43  31 SW16G25   30.26S
RIFLE          SUNNY     73  50  44 NW6       30.20F
DELTA          SUNNY     78  49  35 SE3       30.19F
NUCLA          SUNNY     73  46  38 CALM      30.28F
$$

COZ017>023-064>068-041800-
...SOUTHWEST COLORADO...

CITY           SKY/WX    TMP DP  RH WIND       PRES   REMARKS
DURANGO        SUNNY     78  44  29 W13       30.27F
CORTEZ         SUNNY     76  50  40 SW3       30.24S
PAGOSA SPRINGS SUNNY     71  39  31 CALM      30.35F
TELLURIDE      SUNNY     68  41  37 W12G18    30.48R
WOLF CREEK PAS NOT AVBL
$$

COZ009-010-012-014-032>034-037-058>063-041800-
...CENTRAL COLORADO...

CITY           SKY/WX    TMP DP  RH WIND       PRES   REMARKS
ASPEN          SUNNY     70  46  42 N12G18    30.32S
BUENA VISTA    SUNNY     72  38  29 W22       30.30S
COPPER MTN     MOSUNNY   55  32  41 W28G44    30.58R
BERTHOUD PASS  FAIR      45  34  65 NW37G51   30.56R
COTTONWOOD PAS PTSUNNY   64  37  36 NW8       30.44R
GUNNISON       SUNNY     63  45  51 SW3       30.38S
KREMMLING      MOSUNNY   73  36  25 W14       30.29R
LEADVILLE      MOSUNNY   60  35  39 NW18G29   30.44R
MONARCH PASS   MOSUNNY   46  41  81 W25G36    30.69R
SALIDA         PTSUNNY   77  40  25 SW16G29   30.35R
SUNLIGHT       SUNNY     59  46  63 W3        30.57R
WILKERSON PASS NOT AVBL
$$

COZ069>075-041800-
...SAN LUIS VALLEY/SANGRE DE CRISTO MOUNTAINS...

CITY           SKY/WX    TMP DP  RH WIND       PRES   REMARKS
ALAMOSA        SUNNY     69  44  40 S7        30.32S
LA VETA PASS   SUNNY     61  37  41 MISG      30.49R
SAGUACHE       SUNNY     68  46  45 SE10      30.35R
$$

COZ035-036-038>040-041800-
...NORTHERN COLORADO FRONT RANGE...

CITY           SKY/WX    TMP DP  RH WIND       PRES   REMARKS
DENVER INTL AP PTSUNNY   81  44  27 NW8G21    30.10F
DMNS CITY PARK   N/A     78  44  29 N3G12     30.10S
AURORA         PTSUNNY   78  44  29 NW13      30.12F
FRONT RANGE AP PTSUNNY   81  41  24 NW5       30.11F
ERIE MUNI ARPT PTSUNNY   77  45  32 CALM      30.08F
BOULDER MUN AP PTSUNNY   73  52  46 SE3       30.08F
CENTENNIAL     PTSUNNY   77  44  30 N9        30.13S
BROOMFIELD     PTSUNNY   77  43  29 N8        30.11F
FORT COLLINS   PTSUNNY   75  52  43 S7        30.07F
LONGMONT       PTSUNNY   83  47  28 S8        30.07F
$$

COZ041-046-047-076>085-087-088-041800-
...PIKES PEAK/PALMER DIVIDE AND SOUTHERN FOOTHILLS...

CITY           SKY/WX    TMP DP  RH WIND       PRES   REMARKS
COLO. SPRINGS  MOSUNNY   81  39  22 W10       30.15S
A. F. ACADEMY  SUNNY     78  39  24 W7        30.16F
ELLICOTT       SUNNY    N/A N/A N/A N12G18    30.13S
FALCON         SUNNY     77  39  26 N7        30.21S
FORT CARSON    SUNNY     80  45  28 VRB7      30.12S
LIMON          SUNNY     81  45  28 N14       30.09S
MONUMENT HILL  SUNNY     73  37  27 N5        30.22R
TRINIDAD       SUNNY     84  45  25 W7G22     30.12S
$$

COZ042>045-048>051-090-091-041800-
...NORTHEAST COLORADO...

CITY           SKY/WX    TMP DP  RH WIND       PRES   REMARKS
GREELEY ARPT   MOSUNNY   81  46  30 W7        30.06S
AKRON          SUNNY     82  49  31 N16       30.03F
BURLINGTON     SUNNY     79  58  48 W8        29.99F
WRAY           MOSUNNY   82  61  48 E6        29.96S
STERLING       SUNNY     82  52  34 N9G22     29.97F
HOLYOKE        PTSUNNY   79  64  61 NW9       29.98S THUNDER
FORT MORGAN    SUNNY     84  44  24 NW10G16   30.03F
$$

COZ086-089-092>099-041800-
...SOUTHEAST COLORADO...

CITY           SKY/WX    TMP DP  RH WIND       PRES   REMARKS
PUEBLO         SUNNY     88  44  21 W20       30.03S
LA JUNTA       SUNNY     85  58  39 W12G18    30.01S
LAMAR          SUNNY     82  60  47 VRB5      29.96F
SPRINGFIELD      N/A     87  56  34 VRB6      30.01F
$$


USA.gov is the U.S. government's official web portal to all federal, state and local government web resources and services.